Location: Rio Negrinho
(26.2394°S, 49.4999°W)
Time: 19:21:18
(UTC+00:00)

Cosmos 1844 - Pass Details

Date: 07 October 2020
Orbit: 824 x 866 km, 70.9° (Epoch: 20 October)

Event Time Altitude Azimuth Distance (km) Brightness Sun altitude
Exits shadow 07:21:20 24° 338° (NNW) 1,694 4.9 -20.4°
Maximum altitude 07:24:54 82° 252° (WSW) 863 3.6 -19.6°
Drops below altitude 10° 07:30:41 10° 163° (SSE) 2,504 6.6 -18.4°
Sets 07:33:10 0° 162° (SSE) 3,453 7.4 -17.9°
